, AK

(GMT )
Shemya

Weather History for PASY - November, 2013

Change the Weather History Date:

Saturday, November 16, 2013

  Actual Average Record
Temperature  
Mean Temperature 40 °F -  
Max Temperature 42 °F 38 °F 44 °F (1963)
Min Temperature 39 °F 33 °F 23 °F (1964)
Degree Days  
Heating Degree Days 24    
Moisture  
Dew Point 42 °F    
Average Humidity 100    
Maximum Humidity 100    
Minimum Humidity 96    
Precipitation  
Precipitation 0.00 in - - ()
Sea Level Pressure  
Sea Level Pressure 29.99 in    
Wind  
Wind Speed 23 mph (East)    
Max Wind Speed 30 mph    
Max Gust Speed 36 mph    
Visibility 5 miles    
Events Rain    
Averages and records for this station are not official NWS values.
T = Trace of Precipitation, MM = Missing Value Source: NWS Daily Summary

Daily Weather History Graph

Daily Weather History Graph

Search for Another Location

Airport or City:

Trip Planner

Search our weather history database for the weather conditions in past years. The results will help you decide how hot, cold, wet, or windy it might be!

Date:

Astronomy

Nov. 15, 2013 Rise Set
Actual Time 9:47 AM HST 6:28 PM HST
Civil Twilight 9:08 AM HST 7:07 PM HST
Nautical Twilight 8:26 AM HST 7:49 PM HST
Astronomical Twilight 7:46 AM HST 8:29 PM HST
Moon 6:17 PM HST (11/16) 8:55 AM HST (11/16)
Length of Visible Light 9h 58m
Length of Day
8h 41m
Waxing Gibbous, 99% of the Moon is Illuminated
Nov 16
Waxing Gibbous
Nov 17
Full
Nov 25
Last Quarter
Dec 2
New
Dec 9
First Quarter

Hourly Weather History & Observations

Time (HST) Temp. Windchill Dew Point Humidity Pressure Visibility Wind Dir Wind Speed Gust Speed Precip Events Conditions
12:06 AM 41.0 °F 31.6 °F 41.0 °F 100% 30.12 in 6.2 mi ESE 20.7 mph 33.4 mph N/A Rain Light Rain
12:27 AM 39.2 °F 28.0 °F 39.2 °F 100% 30.11 in 6.2 mi East 26.5 mph - N/A   Overcast
12:46 AM 39.2 °F 28.3 °F 39.2 °F 100% 30.10 in 6.2 mi East 25.3 mph 31.1 mph N/A   Overcast
12:56 AM 39.9 °F 29.2 °F 39.9 °F 100% 30.11 in 8.0 mi East 25.3 mph - N/A   Overcast
1:08 AM 39.2 °F 29.0 °F 39.2 °F 100% 30.10 in 6.2 mi East 21.9 mph 29.9 mph N/A Rain Light Rain
1:54 AM 39.2 °F 29.0 °F 39.2 °F 100% 30.08 in 10.0 mi East 21.9 mph - N/A   Overcast
1:56 AM 39.9 °F 29.5 °F 39.9 °F 100% 30.09 in 10.0 mi East 24.2 mph - N/A   Overcast
2:13 AM 39.2 °F 29.3 °F 39.2 °F 100% 30.08 in 6.2 mi East 20.7 mph 32.2 mph N/A   Overcast
2:56 AM 39.9 °F 30.0 °F 39.9 °F 100% 30.08 in 6.0 mi East 21.9 mph 32.2 mph N/A   Overcast
3:13 AM 39.2 °F 27.8 °F 39.2 °F 100% 30.07 in 4.0 mi East 27.6 mph 33.4 mph N/A Rain Light Rain
3:56 AM 41.0 °F 30.2 °F 39.9 °F 96% 30.05 in 5.0 mi East 27.6 mph 32.2 mph N/A Rain Light Rain
4:11 AM 41.0 °F 30.2 °F 41.0 °F 100% 30.04 in 6.2 mi East 27.6 mph 32.2 mph N/A Rain Light Rain
4:56 AM 41.0 °F 29.8 °F 41.0 °F 100% 30.03 in 10.0 mi East 29.9 mph 33.4 mph N/A   Overcast
5:56 AM 41.0 °F 29.8 °F 41.0 °F 100% 30.00 in 9.0 mi East 29.9 mph 35.7 mph N/A Rain Light Rain
6:56 AM 41.0 °F 30.5 °F 41.0 °F 100% 29.99 in 9.0 mi East 26.5 mph 35.7 mph N/A   Overcast
7:56 AM 41.0 °F 30.5 °F 41.0 °F 100% 29.99 in 5.0 mi East 26.5 mph - N/A Rain Light Rain
8:31 AM 41.0 °F 30.7 °F 41.0 °F 100% 29.98 in 5.0 mi East 25.3 mph - N/A Rain Light Rain
8:56 AM 41.0 °F 30.7 °F 41.0 °F 100% 29.99 in 6.0 mi East 25.3 mph 32.2 mph N/A Rain Light Rain
9:19 AM 41.0 °F 30.5 °F 41.0 °F 100% 29.99 in 4.0 mi East 26.5 mph 32.2 mph N/A Rain Light Rain
9:37 AM 41.0 °F 31.4 °F 41.0 °F 100% 29.99 in 4.0 mi East 21.9 mph 28.8 mph N/A Rain Light Rain
9:56 AM 41.0 °F 31.1 °F 41.0 °F 100% 30.00 in 6.0 mi East 23.0 mph 29.9 mph N/A Rain Light Rain
10:04 AM 41.0 °F 31.1 °F 41.0 °F 100% 30.00 in 5.0 mi East 23.0 mph 29.9 mph N/A Rain Light Rain
10:56 AM 41.0 °F 31.1 °F 41.0 °F 100% 30.00 in 3.0 mi East 23.0 mph - N/A Rain Light Rain
11:56 AM 42.1 °F 32.8 °F 42.1 °F 100% 30.00 in 5.0 mi East 21.9 mph - N/A Rain Light Rain
12:56 PM 42.1 °F 32.6 °F 42.1 °F 100% 29.99 in 10.0 mi East 23.0 mph - N/A   Overcast
1:56 PM 42.1 °F 32.8 °F 42.1 °F 100% 29.97 in 10.0 mi East 21.9 mph - N/A   Overcast
2:40 PM 42.8 °F 33.8 °F 42.8 °F 100% 29.95 in 2.5 mi East 21.9 mph - N/A   Overcast
2:56 PM 42.1 °F 32.8 °F 42.1 °F 100% 29.95 in 2.0 mi East 21.9 mph - N/A   Overcast
3:15 PM 42.8 °F 33.5 °F 42.8 °F 100% 29.94 in 4.0 mi East 23.0 mph - N/A   Overcast
3:33 PM 42.8 °F 33.5 °F 42.8 °F 100% 29.94 in 2.5 mi East 23.0 mph - N/A   Overcast
3:40 PM 42.8 °F 34.0 °F 42.8 °F 100% 29.94 in - East 20.7 mph - N/A   Overcast
3:56 PM 42.1 °F 33.1 °F 42.1 °F 100% 29.94 in 4.0 mi East 20.7 mph - N/A   Overcast
4:11 PM 42.8 °F 34.0 °F 42.8 °F 100% 29.94 in - East 20.7 mph - N/A   Overcast
4:26 PM 42.8 °F 34.0 °F 42.8 °F 100% 29.94 in 1.5 mi East 20.7 mph - N/A   Overcast
4:49 PM 42.8 °F 34.3 °F 42.8 °F 100% 29.94 in 1.8 mi East 19.6 mph - N/A   Overcast
4:56 PM 42.1 °F 33.1 °F 42.1 °F 100% 29.94 in 1.8 mi East 20.7 mph - N/A   Overcast
5:19 PM 42.8 °F 34.3 °F 42.8 °F 100% 29.94 in - East 19.6 mph - N/A   Overcast
5:56 PM 42.1 °F 32.8 °F 42.1 °F 100% 29.94 in 2.0 mi East 21.9 mph - N/A   Overcast
6:13 PM 42.8 °F 34.0 °F 42.8 °F 100% 29.93 in 4.0 mi East 20.7 mph - N/A   Overcast
6:56 PM 42.1 °F 33.6 °F 42.1 °F 100% 29.94 in 4.0 mi East 18.4 mph - N/A   Overcast
7:56 PM 42.1 °F 34.5 °F 42.1 °F 100% 29.94 in 2.5 mi ENE 15.0 mph - N/A   Overcast
8:07 PM 42.8 °F 34.3 °F 42.8 °F 100% 29.94 in - ENE 19.6 mph - N/A Rain Light Rain
8:15 PM 42.8 °F 34.8 °F 42.8 °F 100% 29.94 in 1.8 mi ENE 17.3 mph - N/A Rain Light Rain
8:27 PM 42.8 °F 34.5 °F 42.8 °F 100% 29.94 in - ENE 18.4 mph - N/A Rain Light Rain
8:47 PM 42.8 °F 35.1 °F 42.8 °F 100% 29.94 in 1.5 mi ENE 16.1 mph - N/A Rain Light Rain
8:56 PM 42.1 °F 33.9 °F 42.1 °F 100% 29.94 in 1.5 mi ENE 17.3 mph - N/A Rain Light Rain
9:02 PM 42.8 °F 35.1 °F 42.8 °F 100% 29.94 in - ENE 16.1 mph - N/A Rain Light Rain
9:12 PM 42.8 °F 34.8 °F 42.8 °F 100% 29.94 in 5.0 mi ENE 17.3 mph - N/A Rain Light Rain
9:25 PM 42.8 °F 34.5 °F 42.8 °F 100% 29.94 in 6.2 mi ENE 18.4 mph - N/A Rain Light Rain
9:56 PM 42.1 °F 33.3 °F 42.1 °F 100% 29.94 in 10.0 mi ENE 19.6 mph - N/A Rain Light Rain
10:56 PM 42.1 °F 33.6 °F 42.1 °F 100% 29.94 in 10.0 mi ENE 18.4 mph - N/A Rain Light Rain
11:56 PM 42.1 °F 33.9 °F 42.1 °F 100% 29.94 in 4.0 mi ENE 17.3 mph - N/A Rain Light Rain